Rapid City, SD

4:16 AM MDT on March 27, 2017 (GMT -0600)
Rapid City Regional

Weather History for KRAP - April, 2013

Change the Weather History Date:

Friday, April 12, 2013

  Actual Average Record
Temperature  
Mean Temperature 28 °F 44 °F  
Max Temperature 37 °F 57 °F 86 °F (2003)
Min Temperature 19 °F 31 °F 11 °F (1957)
Degree Days  
Heating Degree Days 37 21  
Month to date heating degree days 350 275  
Since 1 July heating degree days 6307 6403  
Cooling Degree Days 0 0  
Month to date cooling degree days 0 0  
Year to date cooling degree days 0 0  
Moisture  
Dew Point 27 °F    
Average Humidity 82    
Maximum Humidity 100    
Minimum Humidity 64    
Precipitation  
Precipitation T in 0.06 in 0.80 in (1970)
Month to date precipitation 1.69 0.52  
Year to date precipitation 3.12 2.19  
Snow  
Snow T in 0.30 in 5.20 in (1970)
Month to date snowfall 28.2 3.5  
Since 1 July snowfall 61.5 35.6  
Snow Depth 14.00 in    
Sea Level Pressure  
Sea Level Pressure 29.97 in    
Wind  
Wind Speed 9 mph (NNW)    
Max Wind Speed 31 mph    
Max Gust Speed 37 mph    
Visibility 10 miles    
Events Rain , Snow    
T = Trace of Precipitation, MM = Missing Value Source: NWS Daily Summary

Daily Weather History Graph

Daily Weather History Graph

Search for Another Location

Airport or City:

Trip Planner

Search our weather history database for the weather conditions in past years. The results will help you decide how hot, cold, wet, or windy it might be!

Date:

Astronomy

Apr. 12, 2013 Rise Set
Actual Time 6:13 AM MDT 7:33 PM MDT
Civil Twilight 5:43 AM MDT 8:03 PM MDT
Nautical Twilight 5:07 AM MDT 8:39 PM MDT
Astronomical Twilight 4:29 AM MDT 9:17 PM MDT
Moon 7:20 AM MDT (4/12) 10:11 PM MDT (4/12)
Length of Visible Light 14h 19m
Length of Day
13h 19m
Waxing Crescent, 5% of the Moon is Illuminated
Apr 12
Waxing Crescent
Apr 18
First Quarter
Apr 25
Full
May 2
Last Quarter
May 9
New

Hourly Weather History & Observations

Time (MDT) Temp. Windchill Dew Point Humidity Pressure Visibility Wind Dir Wind Speed Gust Speed Precip Events Conditions
12:04 AM 30.2 °F 20.8 °F 26.6 °F 86% 29.83 in 10.0 mi North 11.5 mph - N/A   Overcast
12:52 AM 30.9 °F 22.8 °F 27.0 °F 85% 29.93 in 10.0 mi North 9.2 mph - N/A   Overcast
1:52 AM 30.0 °F 25.2 °F 28.0 °F 92% 29.94 in 10.0 mi NNE 4.6 mph - N/A   Overcast
2:52 AM 30.0 °F 24.1 °F 27.0 °F 88% 29.95 in 10.0 mi WSW 5.8 mph - N/A   Overcast
3:19 AM 28.4 °F 23.3 °F 26.6 °F 93% 29.84 in 10.0 mi West 4.6 mph - N/A   Overcast
3:22 AM 28.4 °F 22.2 °F 26.6 °F 93% 29.84 in 10.0 mi West 5.8 mph - N/A   Overcast
3:52 AM 25.0 °F 18.1 °F 23.0 °F 92% 29.95 in 10.0 mi WNW 5.8 mph - N/A   Mostly Cloudy
4:52 AM 19.9 °F 13.4 °F 19.0 °F 96% 29.95 in 10.0 mi West 4.6 mph - N/A   Clear
5:52 AM 23.0 °F 18.4 °F 21.0 °F 92% 29.96 in 10.0 mi West 3.5 mph - N/A   Clear
6:52 AM 21.0 °F - 19.0 °F 92% 29.97 in 10.0 mi Calm Calm - N/A   Clear
7:52 AM 27.0 °F 23.0 °F 23.0 °F 85% 29.96 in 10.0 mi West 3.5 mph - N/A   Overcast
8:52 AM 30.9 °F - 24.1 °F 76% 29.96 in 10.0 mi Calm Calm - N/A   Mostly Cloudy
9:52 AM 37.0 °F - 26.1 °F 65% 29.96 in 10.0 mi Calm Calm - N/A   Overcast
10:52 AM 33.1 °F 23.0 °F 28.0 °F 82% 29.98 in 10.0 mi NNE 15.0 mph - N/A   Overcast
11:52 AM 35.1 °F 25.2 °F 30.9 °F 85% 29.99 in 9.0 mi NNE 16.1 mph - 0.00 in Snow Light Snow
12:05 PM 35.6 °F 26.2 °F 30.2 °F 81% 29.90 in 5.0 mi NNE 15.0 mph - 0.00 in Snow Light Snow
12:10 PM 35.6 °F 26.2 °F 30.2 °F 81% 29.91 in 5.0 mi NNE 15.0 mph - 0.00 in Snow Light Snow
12:52 PM 35.1 °F 25.2 °F 30.9 °F 85% 29.99 in 7.0 mi North 16.1 mph - 0.00 in Snow Light Snow
1:48 PM 35.6 °F 24.2 °F 30.2 °F 81% 29.90 in 10.0 mi North 21.9 mph - 0.00 in   Overcast
1:52 PM 35.1 °F 23.8 °F 30.9 °F 85% 29.99 in 10.0 mi North 20.7 mph - 0.00 in   Overcast
2:52 PM 35.1 °F 25.9 °F 32.0 °F 89% 30.00 in 9.0 mi NW 13.8 mph - 0.00 in Snow Light Snow
3:52 PM 35.1 °F 25.5 °F 32.0 °F 89% 30.01 in 10.0 mi NW 15.0 mph - 0.00 in Rain Light Rain
4:05 PM 37.4 °F 27.8 °F 32.0 °F 81% 29.92 in 10.0 mi NNW 17.3 mph 23.0 mph 0.00 in Rain Light Rain
4:52 PM 36.0 °F 24.7 °F 30.0 °F 79% 30.02 in 10.0 mi NNW 21.9 mph 28.8 mph 0.00 in   Overcast
5:52 PM 35.1 °F 22.5 °F 28.9 °F 78% 30.05 in 10.0 mi NW 26.5 mph 33.4 mph N/A   Overcast
6:52 PM 34.0 °F 23.8 °F 30.0 °F 85% 30.05 in 10.0 mi North 16.1 mph - 0.00 in   Overcast
7:52 PM 32.0 °F 23.6 °F 28.9 °F 88% 30.04 in 10.0 mi NNW 10.4 mph - N/A   Clear
8:52 PM 30.0 °F 23.2 °F 26.1 °F 85% 30.03 in 10.0 mi North 6.9 mph - N/A   Clear
9:52 PM 30.9 °F - 26.1 °F 82% 30.03 in 10.0 mi Calm Calm - N/A   Clear
10:52 PM 25.0 °F 20.7 °F 21.9 °F 88% 30.03 in 10.0 mi South 3.5 mph - N/A   Clear
11:52 PM 23.0 °F 18.4 °F 21.0 °F 92% 30.01 in 10.0 mi NNE 3.5 mph - N/A   Clear